Погода Марьина Горка

Погода Марьина Горка : погода сейчас, прогноз погоды и архив. Всё, что Вы хотите узнать о погоде Марьина Горка!

Хотите узнать прогноз погоды Марьина Горка? Тогда Вам сюда: Погода Марьина Горка

Поиск расширенной информации на нашем сайте:

Другие новости

Новости СМИ2

Главная страница сайта

Новости сайта

02.10.2013

Напоминаем, что на нашем новом сайте вы можете получить высокодетализированные прогнозы погоды по пунктам России, СНГ и мира (включающие важные для авиации метеовеличины, такие как направление и скорость ветра, видимость, явления погоды, количество и форма облачности, нижняя и верхняя граница облачности), а также ознакомиться с разнообразными материалами по авиационной метеорологии и подборкой полезных ссылок на эту тему.

Сайт Метеоцентр.Азия посвящён разработке технологий оптимизации авиаметеорологического обслуживания, включая проектирование и перспективное создание нескольких автоматизированных авиаметеорологических систем:
- система выпуска высокодетальных прогностических карт явлений погоды для нижнего воздушного пространства по России и ближнему зарубежью;
- система верификации прогнозов TAF (выпускаемых синоптиками официальных АМСГ РФ и ближнего зарубежья) и AUTOTAF (выпускаемых сайтом Метеоцентр.Азия) - выявление ошибок, онлайн-сопоставление с фактической погодой METAR, автоматическое внесение коррективов в прогнозы при резком отклонении фактической погоды от прогноза, подсчёт оправдываемости прогнозов по элементам и в целом;
- система обработки, анализа и отображения авиаметеорологической информации для применения провайдерами метеорологической информации.


Погода Марьина Горка - сегодня

Время (UTC), дата Ветер
(°,м/с) 
Видим.   Явления Облачность Т
(°С)
Тd
(°С)
f(%) Тe
(°С)
Pmin
(гПа)
dP
(гПа)
Po
(мм)
O2
(г/м3)
Тmin Tmax R s Состояние
почвы
09 22.04.17 280 (З) 8-14{14}  17000 м  {ливн. осадки}  8/8 600 м 
[Cu Sc]
+7.1 +1 65 +4  999.5  0.9  734  288           
12 22.04.17 300 (СЗ) 5-11{16}  17000 м  в посл. час ливневой дождь  8/8 600 м кучево-дожд. 
[Cb cap]
+6.9 +1 66 +5  1002.3  2.7  736  289           
18 22.04.17 290 (З) 5-10{12}  17000 м  {ливн. осадки}  6/5 600 м средняя 
[Sc|Ac und]
+5.9 -2.7 54 +4  1004.4  1.4  737  291    +9.3  0.4     
21 22.04.17 260 (З) 3{10}  16000 м    ясно 
+3.3 -2.9 64 +2  1005.3  0.7  738  294           
00 23.04.17 240 (ЮЗ) 14000 м    ясно 
+1.4 -2.2 77 -1  1005.5  738  296           
03 23.04.17 240 (ЮЗ) 11000 м    3/3 2000 м средняя 
[Ac und]
-1 -2.7 88 1005.9  0.2  738  299           
06 23.04.17 290 (З) 15000 м    3/3 600 м 
[Cu med, cong]
+3.8 -1 71 +2  1006.9  1.4  739  294  -1         
09 23.04.17 300 (СЗ) 4{10}  20000 м    8/8 600 м верхняя 
[Cu med, cong|Ci fib]
+7 -2.7 50 +6  1007.7  740  291           
12 23.04.17 340 (С) 4{11}  22000 м    8/6 600 м верхняя 
[Cu med, cong|Ci fib]
+7.9 -2.7 47 +7  1007.7  0.1  740  290           
15 23.04.17 310 (СЗ) 4{10}  27000 м    5/5 600 м 
[Cu med, cong]
+8.4 -8.2 30 +7  1008.1  0.4  740  290           
18 23.04.17 тихо ()   22000 м    3/3 600 м 
[Sc]
+4.6 -5.7 47 +5  1010.2  1.8  741  294    +9       
21 23.04.17 тихо ()   16000 м    ясно 
+0.4 -4.4 70 1012  1.4  743  299           
00 24.04.17 260 (З) 15000 м    ясно 
-0.7 -4.4 76 1012.6  0.5  743  301           
03 24.04.17 260 (З) 13000 м    ясно 
-1.8 -4.1 84 -1  1012.7  743  302           
06 24.04.17 тихо ()   18000 м    ясно 
+4 -1.6 67 +4  1013.4  1.2  744  296  -2         
09 24.04.17 290 (З) 27000 м    8/8 600 м 
[Cu med, cong]
+7.5 -8.1 32 +6  1012.9  -0.3  744  292           
12 24.04.17 260 (З) 28000 м    5/5 600 м 
[Cu med, cong]
+10.1 -9.6 24 +10  1011.9  -0.8  743  290           
15 24.04.17 230 (ЮЗ) 21000 м    5/5 600 м 
[Cu med, cong]
+8.6 -2.1 47 +7  1012.3  0.3  743  291           
18 24.04.17 230 (ЮЗ) 18000 м    6/3 600 м верхняя 
[Sc|Cs]
+4.3 -0.3 72 +4  1014.1  1.5  744  295    +10.5       
21 24.04.17 200 (Ю) 13000 м    6/3 600 м верхняя 
[Sc|Cs]
+2.2 -0.1 85 +2  1014.4  0.1  744  298           
00 25.04.17 190 (Ю) 13000 м    8/3 600 м верхняя 
[Sc|Cs]
+1.4 -0.8 85 +1  1014.5  744  298           
03 25.04.17 170 (Ю) 12000 м    9/3 600 м верхняя 
[Sc|Cs]
+0.2 -1.6 88 +1  1014.2  -0.4  744  300           
06 25.04.17 180 (Ю) 15000 м    10/0 верхняя 
[Cs]
+6.1 -0.2 64 +5  1013.5  -0.2  744  293  +0.1         
09 25.04.17 180 (Ю) 18000 м    10/0 верхняя 
[Cs]
+10.1 -1.6 44 +9  1012.6  -0.6  743  289           
12 25.04.17 180 (Ю) 5-11{11}  20000 м    10/3 600 м верхняя 
[Cu med, cong|Cs]
+13.2 -0.1 40 +12  1010.1  -2.2  742  285           
Время (UTC), дата Ветер
(°,м/с) 
Видим.   Явления Облачность Т
(°С)
Тd
(°С)
f(%) Тe
(°С)
Pmin
(гПа)
dP
(гПа)
Po
(мм)
O2
(г/м3)
Тmin Tmax R s Состояние
почвы

Для получения пояснительной информации подведите курсор к названию столбца.

ПОГОДА Марьина Горка - архив

Всё, что Вы хотите узнать о погоде Марьина Горка - удобно и подробно!

Выберите нужную дату (начиная с 1 января 2015* года) и нажмите кнопку "Найти".
Будут отображены архивные сводки погоды по пункту Марьина Горка, начиная с указанной даты.


Отображать данные в формате CSV (для использования в таблицах Excel)


Внимание! Наш архив погоды предназначен исключительно для личного некоммерческого использования в познавательных целях. Если Вам необходимы официальные справки о состоянии погоды (для производственных, юридических, коммерческих и т.п. целей), обращайтесь в органы Росгидромета.

*Примечание: данная дата относится к архиву по метеостанциям СССР (Россия, СНГ, Балтия).
Архив по метеостанциям Зарубежной Европы и Азии (кроме Китая) хранится 10 дней, по другим регионам земного шара (Китай, Африка, Америка, Австралия, Океания) - 1 день.

Марьина Горка - район местоположения метеостанции


Название, широта, долгота, высота метеостанции:
Марьина Горка 55.4°ш. 28.1°д. 177 м над ур. моря [Беларусь]

Дополнительная информация

В oтличие oт бoльшинства пoгoдных сайтoв мы публикуем пoдрoбную метеoинфoрмацию в детальнoм прoфессиoнальнoм фoрмате.

Характеристики температуры и влажнoсти вoздуха измеряются на высoте 2 м в тени вдали oт зданий и деревьев.
Скoрoсть ветра измеряется на высoте 10 м (на урoвне рoста челoвека скoрoсть ветра ниже в 1.5-2 раза). Если метеoстанция нахoдится в гoрoде или в лесу, тo скoрoсть ветра занижена на 2-4 м/с пo сравнению с oткрытым местoм. Скoрoсть ветра над акватoриями крупных рек и oзёр, а также на вершинах хoлмoв на 2-5 м/с выше, чем в oбычных услoвиях.
Атмoсфернoе давление в разных тoчках местнoсти мoжет значительнo oтличаться oт давления на метеoстанции, в зависимoсти oт услoвий рельефа (при пoдъёме на 10 м давление пoнижается примернo на 1 мм рт.ст.).